DLH17K EDDH-EDDM

Flight info

Callsign DLH17K
Flight time 0h 59m
Altitude 35000
Route AMLUH2G AMLUH M852 DENIX DCT ZUCKA DCT SODRO/N0449F310 T703 LULAR/N0449F300 T105 LANDU LANDU2B
Aircraft A320/M-SDE3FGHIRWY/LB1

Departure

Time 2026-05-06 16:52
Airport Hamburg Helmut Schmidt Airport (EDDH)

Arrival

Time 2026-05-06 17:51
Airport Munich Airport (EDDM)
Time Latitude Longitude Altitude Speed Heading
2026-05-06 16:19 53.63294 10.00359 45 ft 0 kts 86°
2026-05-06 16:20 53.63294 10.00358 51 ft 0 kts 87°
2026-05-06 16:41 53.63294 10.00347 51 ft 3 kts 87°
2026-05-06 16:41 53.63293 10.00310 51 ft 3 kts 87°
2026-05-06 16:41 53.63292 10.00278 51 ft 3 kts 88°
2026-05-06 16:42 53.63294 10.00247 51 ft 3 kts 139°
2026-05-06 16:42 53.63311 10.00236 46 ft 3 kts 176°
2026-05-06 16:42 53.63317 10.00235 49 ft 0 kts 176°
2026-05-06 16:46 53.63315 10.00235 49 ft 2 kts 176°
2026-05-06 16:47 53.63294 10.00237 51 ft 7 kts 176°
2026-05-06 16:47 53.63226 10.00246 51 ft 13 kts 175°
2026-05-06 16:47 53.63133 10.00256 51 ft 13 kts 176°
2026-05-06 16:47 53.63052 10.00243 51 ft 11 kts 205°
2026-05-06 16:48 53.62973 10.00158 51 ft 16 kts 212°
2026-05-06 16:48 53.62883 10.00061 50 ft 15 kts 218°
2026-05-06 16:48 53.62834 9.99923 48 ft 13 kts 243°
2026-05-06 16:48 53.62811 9.99801 49 ft 9 kts 289°
2026-05-06 16:49 53.62841 9.99764 49 ft 0 kts 333°
2026-05-06 16:51 53.62843 9.99763 49 ft 3 kts 333°
2026-05-06 16:51 53.63045 9.99589 49 ft 71 kts 333°
2026-05-06 16:51 53.63688 9.99036 50 ft 134 kts 333°
2026-05-06 16:51 53.64647 9.98210 300 ft 160 kts 334°
2026-05-06 16:52 53.65617 9.97357 1120 ft 157 kts 338°
2026-05-06 16:52 53.66632 9.96489 1691 ft 170 kts 340°
2026-05-06 16:52 53.67756 9.95545 2071 ft 193 kts 340°
2026-05-06 16:52 53.69065 9.94734 2487 ft 208 kts 359°
2026-05-06 16:53 53.70504 9.94706 3331 ft 208 kts
2026-05-06 16:53 53.71958 9.94812 4171 ft 210 kts 16°
2026-05-06 16:53 53.73140 9.96090 4907 ft 210 kts 57°
2026-05-06 16:53 53.73661 9.98410 5698 ft 215 kts 74°
2026-05-06 16:54 53.74020 10.00873 6530 ft 218 kts 79°
2026-05-06 16:54 53.74001 10.03473 7251 ft 227 kts 99°
2026-05-06 16:54 53.73428 10.06085 7686 ft 252 kts 118°
2026-05-06 16:54 53.72502 10.08757 8113 ft 274 kts 117°
2026-05-06 16:55 53.71537 10.11594 8838 ft 283 kts 117°
2026-05-06 16:55 53.70557 10.14509 9683 ft 289 kts 117°
2026-05-06 16:55 53.69462 10.17422 10264 ft 305 kts 128°
2026-05-06 16:55 53.67863 10.19986 10536 ft 331 kts 143°
2026-05-06 16:56 53.65745 10.21785 10940 ft 349 kts 161°
2026-05-06 16:56 53.63383 10.22855 11746 ft 352 kts 165°
2026-05-06 16:56 53.61022 10.23918 12652 ft 352 kts 165°
2026-05-06 16:56 53.58658 10.25007 13521 ft 353 kts 164°
2026-05-06 16:57 53.56299 10.26101 14370 ft 351 kts 165°
2026-05-06 16:57 53.53926 10.27199 15013 ft 356 kts 166°
2026-05-06 16:57 53.51521 10.28304 15636 ft 361 kts 166°
2026-05-06 16:57 53.49083 10.29415 16283 ft 364 kts 166°
2026-05-06 16:58 53.46624 10.30534 16945 ft 368 kts 166°
2026-05-06 16:58 53.44140 10.31663 17634 ft 371 kts 167°
2026-05-06 16:58 53.41635 10.32803 18330 ft 375 kts 167°
2026-05-06 16:58 53.39102 10.33949 18941 ft 378 kts 167°
2026-05-06 16:59 53.36553 10.35096 19574 ft 381 kts 167°
2026-05-06 16:59 53.33984 10.36247 20174 ft 385 kts 167°
2026-05-06 16:59 53.31376 10.37418 20763 ft 389 kts 167°
2026-05-06 16:59 53.28744 10.38602 21090 ft 393 kts 167°
2026-05-06 17:00 53.26077 10.39799 21446 ft 402 kts 168°
2026-05-06 17:00 53.23360 10.41019 21932 ft 406 kts 168°
2026-05-06 17:00 53.20623 10.42243 22441 ft 410 kts 168°
2026-05-06 17:00 53.17855 10.43476 22964 ft 413 kts 168°
2026-05-06 17:01 53.15071 10.44708 23464 ft 415 kts 168°
2026-05-06 17:01 53.12264 10.45925 23883 ft 418 kts 170°
2026-05-06 17:01 53.09428 10.46977 24297 ft 419 kts 172°
2026-05-06 17:01 53.06558 10.47886 24699 ft 420 kts 174°
2026-05-06 17:02 53.03667 10.48723 25106 ft 422 kts 174°
2026-05-06 17:02 53.00767 10.49543 25505 ft 424 kts 174°
2026-05-06 17:02 52.97886 10.50371 25878 ft 427 kts 174°
2026-05-06 17:02 52.94959 10.51239 26259 ft 429 kts 174°
2026-05-06 17:03 52.92013 10.52137 26649 ft 431 kts 174°
2026-05-06 17:03 52.89062 10.53051 27023 ft 433 kts 174°
2026-05-06 17:03 52.86098 10.53978 27381 ft 435 kts 174°
2026-05-06 17:03 52.83115 10.54914 27723 ft 437 kts 174°
2026-05-06 17:04 52.80122 10.55849 28078 ft 439 kts 175°
2026-05-06 17:04 52.77113 10.56777 28390 ft 440 kts 175°
2026-05-06 17:04 52.74095 10.57704 28709 ft 442 kts 175°
2026-05-06 17:04 52.71063 10.58632 29031 ft 444 kts 175°
2026-05-06 17:05 52.68021 10.59560 29340 ft 445 kts 175°
2026-05-06 17:05 52.64970 10.60491 29658 ft 447 kts 176°
2026-05-06 17:05 52.61906 10.61426 29935 ft 448 kts 176°
2026-05-06 17:05 52.58834 10.62367 30179 ft 449 kts 176°
2026-05-06 17:06 52.55767 10.63305 30500 ft 447 kts 175°
2026-05-06 17:06 52.52709 10.64237 30793 ft 446 kts 175°
2026-05-06 17:06 52.49666 10.65162 31122 ft 444 kts 175°
2026-05-06 17:06 52.46625 10.66082 31449 ft 443 kts 175°
2026-05-06 17:07 52.43599 10.66994 31778 ft 442 kts 175°
2026-05-06 17:07 52.40576 10.67907 32112 ft 441 kts 175°
2026-05-06 17:07 52.37552 10.68820 32426 ft 441 kts 175°
2026-05-06 17:07 52.34535 10.69732 32735 ft 440 kts 176°
2026-05-06 17:08 52.31530 10.70636 33042 ft 440 kts 176°
2026-05-06 17:08 52.28544 10.71529 33349 ft 439 kts 176°
2026-05-06 17:08 52.25518 10.72433 33645 ft 438 kts 175°
2026-05-06 17:08 52.22520 10.73332 33948 ft 438 kts 175°
2026-05-06 17:09 52.19524 10.74235 34219 ft 437 kts 175°
2026-05-06 17:09 52.16533 10.75131 34475 ft 437 kts 175°
2026-05-06 17:09 52.13541 10.76025 34708 ft 437 kts 175°
2026-05-06 17:10 52.07560 10.77811 34805 ft 437 kts 175°
2026-05-06 17:10 52.01584 10.79591 34780 ft 435 kts 175°
2026-05-06 17:11 51.95651 10.81352 34787 ft 433 kts 175°
2026-05-06 17:11 51.89735 10.83100 34794 ft 432 kts 175°
2026-05-06 17:12 51.83818 10.84846 34792 ft 432 kts 175°
2026-05-06 17:12 51.77911 10.86569 34771 ft 431 kts 175°
2026-05-06 17:13 51.72004 10.88288 34784 ft 431 kts 175°
2026-05-06 17:13 51.66169 10.90663 34784 ft 439 kts 163°
2026-05-06 17:14 51.60643 10.94978 34785 ft 442 kts 159°
2026-05-06 17:14 51.55160 10.99319 34780 ft 442 kts 159°
2026-05-06 17:15 51.49603 11.03689 34778 ft 441 kts 159°
2026-05-06 17:15 51.44132 11.07984 34789 ft 440 kts 159°
2026-05-06 17:16 51.38631 11.12281 34788 ft 440 kts 159°
2026-05-06 17:16 51.33118 11.16576 34782 ft 440 kts 159°
2026-05-06 17:17 51.27612 11.20859 34781 ft 440 kts 159°
2026-05-06 17:17 51.22103 11.25131 34775 ft 440 kts 159°
2026-05-06 17:18 51.16598 11.29398 34777 ft 439 kts 159°
2026-05-06 17:18 51.11103 11.33646 34766 ft 439 kts 159°
2026-05-06 17:19 51.05606 11.37878 34765 ft 439 kts 159°
2026-05-06 17:19 51.00106 11.42095 34736 ft 439 kts 160°
2026-05-06 17:20 50.94607 11.46306 34756 ft 439 kts 160°
2026-05-06 17:20 50.89109 11.50508 34758 ft 439 kts 160°
2026-05-06 17:21 50.83612 11.54700 34761 ft 438 kts 160°
2026-05-06 17:21 50.78110 11.58886 34757 ft 439 kts 160°
2026-05-06 17:21 50.75361 11.60975 34941 ft 439 kts 160°
2026-05-06 17:22 50.72612 11.63061 34778 ft 436 kts 160°
2026-05-06 17:22 50.67175 11.67177 34749 ft 433 kts 160°
2026-05-06 17:23 50.61775 11.71237 34743 ft 433 kts 160°
2026-05-06 17:23 50.56304 11.75344 34751 ft 433 kts 160°
2026-05-06 17:24 50.50899 11.79400 34764 ft 433 kts 160°
2026-05-06 17:24 50.45463 11.83461 34772 ft 432 kts 161°
2026-05-06 17:25 50.39974 11.87256 34776 ft 430 kts 162°
2026-05-06 17:25 50.34454 11.90897 34775 ft 430 kts 163°
2026-05-06 17:26 50.28942 11.94557 34780 ft 431 kts 162°
2026-05-06 17:26 50.23440 11.98255 34774 ft 430 kts 162°
2026-05-06 17:27 50.17938 12.01975 34743 ft 430 kts 162°
2026-05-06 17:27 50.12439 12.05685 34746 ft 431 kts 162°
2026-05-06 17:28 50.06926 12.09377 34713 ft 432 kts 162°
2026-05-06 17:28 50.04134 12.11022 34464 ft 425 kts 172°
2026-05-06 17:28 50.01248 12.11776 34216 ft 420 kts 178°
2026-05-06 17:28 49.99329 12.12166 34062 ft 419 kts 178°
2026-05-06 17:29 49.95466 12.12917 33738 ft 418 kts 179°
2026-05-06 17:29 49.92589 12.13460 33465 ft 417 kts 179°
2026-05-06 17:29 49.90677 12.13820 33294 ft 418 kts 179°
2026-05-06 17:29 49.87791 12.14367 33028 ft 418 kts 178°
2026-05-06 17:30 49.84898 12.14922 32760 ft 419 kts 178°
2026-05-06 17:30 49.82007 12.15478 32492 ft 419 kts 178°
2026-05-06 17:30 49.79110 12.16036 32228 ft 420 kts 178°
2026-05-06 17:30 49.76212 12.16597 31961 ft 419 kts 178°
2026-05-06 17:31 49.73314 12.17155 31154 ft 421 kts 178°
2026-05-06 17:31 49.70403 12.17709 30138 ft 423 kts 178°
2026-05-06 17:31 49.67466 12.18266 29137 ft 424 kts 177°
2026-05-06 17:31 49.64581 12.18819 28610 ft 413 kts 177°
2026-05-06 17:32 49.61745 12.19364 27948 ft 408 kts 177°
2026-05-06 17:32 49.58951 12.19899 27312 ft 402 kts 177°
2026-05-06 17:32 49.56185 12.20427 26686 ft 397 kts 177°
2026-05-06 17:32 49.53458 12.20948 26097 ft 393 kts 177°
2026-05-06 17:33 49.50763 12.21464 25494 ft 389 kts 176°
2026-05-06 17:33 49.48085 12.21971 24925 ft 386 kts 176°
2026-05-06 17:33 49.45424 12.22469 24327 ft 383 kts 176°
2026-05-06 17:33 49.42787 12.22961 23745 ft 381 kts 176°
2026-05-06 17:34 49.40161 12.23455 23148 ft 380 kts 176°
2026-05-06 17:34 49.37545 12.23950 22548 ft 377 kts 176°
2026-05-06 17:34 49.34957 12.24439 22040 ft 373 kts 176°
2026-05-06 17:34 49.32388 12.24921 21522 ft 370 kts 176°
2026-05-06 17:35 49.29850 12.25400 21056 ft 366 kts 176°
2026-05-06 17:35 49.27338 12.25872 20583 ft 362 kts 176°
2026-05-06 17:35 49.24853 12.26339 20132 ft 358 kts 176°
2026-05-06 17:36 49.19962 12.27259 19245 ft 351 kts 176°
2026-05-06 17:36 49.17547 12.27710 18807 ft 348 kts 176°
2026-05-06 17:36 49.15153 12.28161 18357 ft 346 kts 176°
2026-05-06 17:36 49.12771 12.28613 17882 ft 344 kts 176°
2026-05-06 17:37 49.10431 12.29054 17406 ft 342 kts 176°
2026-05-06 17:37 49.08077 12.29494 16935 ft 340 kts 176°
2026-05-06 17:37 49.05737 12.29929 16473 ft 337 kts 176°
2026-05-06 17:37 49.03413 12.30358 16006 ft 336 kts 176°
2026-05-06 17:38 49.01098 12.30781 15538 ft 335 kts 176°
2026-05-06 17:38 48.98792 12.31203 15057 ft 334 kts 176°
2026-05-06 17:38 48.96487 12.31627 14583 ft 333 kts 176°
2026-05-06 17:38 48.94193 12.32049 14095 ft 332 kts 175°
2026-05-06 17:39 48.91902 12.32473 13621 ft 332 kts 175°
2026-05-06 17:39 48.89608 12.32899 13083 ft 331 kts 175°
2026-05-06 17:39 48.87296 12.33105 12589 ft 336 kts 187°
2026-05-06 17:39 48.85033 12.32308 11981 ft 334 kts 199°
2026-05-06 17:40 48.82826 12.31221 11401 ft 333 kts 199°
2026-05-06 17:40 48.80635 12.30125 10871 ft 330 kts 199°
2026-05-06 17:40 48.78460 12.29032 10323 ft 328 kts 199°
2026-05-06 17:40 48.76302 12.27949 9850 ft 325 kts 199°
2026-05-06 17:41 48.74207 12.26905 9725 ft 310 kts 199°
2026-05-06 17:41 48.72204 12.25912 9601 ft 296 kts 199°
2026-05-06 17:41 48.70289 12.24961 9464 ft 284 kts 199°
2026-05-06 17:41 48.68450 12.24048 9279 ft 274 kts 199°
2026-05-06 17:42 48.66646 12.23148 8913 ft 272 kts 199°
2026-05-06 17:42 48.64856 12.22256 8510 ft 270 kts 198°
2026-05-06 17:42 48.63078 12.21373 8135 ft 268 kts 198°
2026-05-06 17:42 48.61305 12.20497 7743 ft 267 kts 198°
2026-05-06 17:43 48.59540 12.19626 7339 ft 266 kts 198°
2026-05-06 17:43 48.57784 12.18760 6952 ft 265 kts 198°
2026-05-06 17:43 48.56042 12.17899 6565 ft 262 kts 198°
2026-05-06 17:43 48.54310 12.17045 6119 ft 263 kts 198°
2026-05-06 17:44 48.52573 12.16189 5731 ft 261 kts 198°
2026-05-06 17:44 48.50842 12.15338 5275 ft 262 kts 198°
2026-05-06 17:44 48.49154 12.14507 5115 ft 250 kts 199°
2026-05-06 17:44 48.47498 12.13690 4714 ft 249 kts 200°
2026-05-06 17:45 48.45892 12.12900 4588 ft 237 kts 199°
2026-05-06 17:45 48.44359 12.12150 4464 ft 226 kts 200°
2026-05-06 17:45 48.42899 12.11437 4321 ft 215 kts 202°
2026-05-06 17:45 48.41501 12.10754 4107 ft 208 kts 203°
2026-05-06 17:46 48.40198 12.09897 4003 ft 203 kts 218°
2026-05-06 17:46 48.39190 12.08452 4003 ft 199 kts 237°
2026-05-06 17:46 48.38583 12.06615 4001 ft 195 kts 255°
2026-05-06 17:46 48.38377 12.04660 4002 ft 184 kts 263°
2026-05-06 17:47 48.38239 12.02781 3999 ft 178 kts 263°
2026-05-06 17:47 48.38102 12.00925 3895 ft 178 kts 263°
2026-05-06 17:47 48.37966 11.99088 3734 ft 173 kts 263°
2026-05-06 17:47 48.37834 11.97323 3505 ft 166 kts 264°
2026-05-06 17:48 48.37709 11.95656 3281 ft 153 kts 263°
2026-05-06 17:48 48.37596 11.94146 3115 ft 139 kts 264°
2026-05-06 17:48 48.37489 11.92732 2922 ft 134 kts 263°
2026-05-06 17:48 48.37385 11.91349 2738 ft 132 kts 263°
2026-05-06 17:49 48.37282 11.89968 2545 ft 132 kts 264°
2026-05-06 17:49 48.37193 11.88597 2345 ft 138 kts 264°
2026-05-06 17:49 48.37086 11.87161 2220 ft 134 kts 260°
2026-05-06 17:49 48.36974 11.85778 2015 ft 134 kts 264°
2026-05-06 17:50 48.36879 11.84390 1829 ft 137 kts 261°
2026-05-06 17:50 48.36751 11.82991 1651 ft 136 kts 262°
2026-05-06 17:50 48.36652 11.81610 1468 ft 130 kts 262°
2026-05-06 17:50 48.36556 11.80434 1466 ft 92 kts 263°
2026-05-06 17:51 48.36506 11.79730 1464 ft 43 kts 263°
2026-05-06 17:51 48.36475 11.79355 1469 ft 33 kts 262°
2026-05-06 17:51 48.36442 11.79016 1467 ft 33 kts 253°
2026-05-06 17:51 48.36311 11.78724 1464 ft 34 kts 233°
2026-05-06 17:52 48.36226 11.78556 1465 ft 7 kts 232°
2026-05-06 17:52 48.36222 11.78548 1463 ft 0 kts 232°
2026-05-06 17:52 48.36220 11.78546 1463 ft 2 kts 232°
2026-05-06 17:53 48.36185 11.78499 1465 ft 11 kts 210°
2026-05-06 17:53 48.36103 11.78482 1460 ft 14 kts 176°
2026-05-06 17:53 48.36035 11.78547 1462 ft 12 kts 100°
2026-05-06 17:53 48.36041 11.78668 1467 ft 11 kts 83°
2026-05-06 17:54 48.36050 11.78791 1458 ft 15 kts 84°
2026-05-06 17:54 48.36065 11.78982 1463 ft 19 kts 83°
2026-05-06 17:54 48.36080 11.79172 1461 ft 16 kts 83°
2026-05-06 17:54 48.36073 11.79303 1462 ft 11 kts 127°
2026-05-06 17:55 48.36000 11.79333 1465 ft 11 kts 173°
2026-05-06 17:55 48.35918 11.79354 1460 ft 11 kts 156°
2026-05-06 17:55 48.35843 11.79387 1464 ft 12 kts 173°
2026-05-06 17:55 48.35788 11.79444 1466 ft 10 kts 96°
2026-05-06 17:56 48.35795 11.79546 1467 ft 12 kts 83°
2026-05-06 17:56 48.35805 11.79681 1463 ft 13 kts 83°
2026-05-06 17:56 48.35815 11.79807 1464 ft 12 kts 83°
2026-05-06 17:56 48.35822 11.79894 1482 ft 0 kts 83°
2026-05-06 17:57 48.35823 11.79913 1467 ft 4 kts 85°
2026-05-06 17:58 48.35822 11.79962 1467 ft 7 kts 97°
2026-05-06 17:58 48.35803 11.80027 1462 ft 7 kts 130°
2026-05-06 17:58 48.35769 11.80062 1464 ft 6 kts 156°
2026-05-06 17:58 48.35729 11.80074 1467 ft 6 kts 173°
2026-05-06 17:59 48.35672 11.80083 1467 ft 6 kts 175°
2026-05-06 17:59 48.35644 11.80061 1464 ft 5 kts 246°
2026-05-06 17:59 48.35639 11.79996 1462 ft 5 kts 264°
2026-05-06 17:59 48.35638 11.79974 1467 ft 0 kts 264°